Location: Pian di Sc�
(43.6333°N, 11.5500°E)
Time: 17:11:56
(UTC+00:00)

SL-08 R/B - Pass Details

Date: 07 August 2020
Orbit: 673 x 740 km, 98.4° (Epoch: 19 September)

Event Time Altitude Azimuth Distance (km) Brightness Sun altitude
Exits shadow 02:44:00 18° 203° (SSW) 1,776 4.9 -14.0°
Maximum altitude 02:47:13 37° 262° (W) 1,134 4.0 -13.6°
Drops below altitude 10° 02:51:50 10° 330° (NNW) 2,259 6.0 -12.9°
Sets 02:54:18 0° 339° (NNW) 3,185 6.9 -12.6°
